OKEAN-3

Last updated on Wed Oct 29 2025 00:02:14 GMT+0000 (Coordinated Universal Time)

1 21397U 91039A 25301.50426671 .00004010 00000+0 29019-3 0 9994 2 21397 82.5142 104.8161 0015793 63.6731 296.6115 15.03660068845167
UTC large
Height (km)
Speed (km/s)
/
Latitude / Longitude
Inclination (degrees)
Orbital Period (minutes)
Azimuth
Elevation
Range (km)
Doppler Factor

Next 0 passes for location: London (51.5072 / 0.1276)

Sorry there are no passes over London.